Location: Hastringsfeld
(50.9620°N, 10.4787°E)
Time: 11:35:42
(UTC+00:00)

ATLAS 3B R/B - Pass Details

Date: 26 September 2023
Orbit: 954 x 1241 km, 63.8° (Epoch: 01 December)

Event Time Altitude Azimuth Distance (km) Brightness Sun altitude
Rises 00:02:40 0° 297° (WNW) 4,013 5.8 -38.9°
Reaches altitude 10° 00:05:42 10° 308° (NW) 3,093 5.3 -38.7°
Maximum altitude 00:12:18 32° 10° (N) 1,951 4.4 -38.4°
Drops below altitude 10° 00:19:07 10° 71° (ENE) 3,207 5.6 -38.0°
Sets 00:22:20 0° 81° (E) 4,181 6.2 -37.8°
